User: anonymous   Login
Location: Franzen
(48.6167°N, 15.3833°E)
Time: 07:10:13
(UTC+00:00)
Language:

Cosmos 2154 Rocket - Orbit

View from above orbital plane
View from above orbital plane
View from above satellite
View from above satellite

Ground track
Ground track

The orbit data is extracted from the following two-line orbital elements,

1 21667U 91059B   21166.78121252 -.00000033  00000-0 -50289-4 0  9996
2 21667  82.9053   2.1749 0021636 142.3817 228.9696 13.75103533496022
Epoch (UTC): 15 June 2021 18:44:56
Eccentricity: 0.0021636
inclination: 82.9053°
perigee height: 965 km
apogee height: 997 km
right ascension of ascending node: 2.1749°
argument of perigee: 142.3817°
revolutions per day: 13.75103533
mean anomaly at epoch: 228.9696°
orbit number at epoch: 49602

The dashed part of the orbit path shows where the satellite is in the earth's shadow,  

DLR